#timestamp,LO_Frequency,Hit,StdDev 
1515492015.5,286047003.7,N
1515492035.3,286047003.0,N
1515492055.1,286047005.7,N
1515492075.9,286047005.6,N
1515492095.7,286047007.1,Y
1515492115.6,286047005.1,P
1515492135.4,286047005.5,P
1515492155.2,286047005.5,P
1515492175.1,286047003.0,Y
1515492176.0,286047003.0,P
1515492195.8,286046999.2,N
1515492215.7,286046999.6,N
1515492235.5,286046995.6,N
1515492255.3,286046992.1,N
1515492275.2,286046992.6,N
1515492295.0,286046992.9,N
1515492295.9,286046992.9,N
1515492315.7,286046991.3,N
1515492335.6,286046990.0,N
1515492355.4,286046989.2,N
1515492375.3,286046987.1,N
1515492395.1,286046987.6,N
1515492415.8,286046988.3,N
1515492435.7,286046986.3,N
1515492455.5,286046984.6,N
1515492475.4,286046984.9,N
1515492495.2,286046984.9,N
1515492515.0,286046983.9,N
1515492515.9,286046983.9,N
1515492535.8,286046984.2,N
1515492555.6,286046986.7,N
1515492575.4,286046986.2,N
1515492595.3,286046984.0,N
1515492615.1,286046984.8,N
1515492635.9,286046985.2,N
1515492655.7,286046981.0,Y
1515492675.5,286046991.5,P
1515492695.4,286046991.2,P
1515492715.2,286046993.2,P
1515492735.1,286046992.1,Y
1515492736.0,286046992.1,P
1515492755.8,286047001.7,P
1515492775.6,286047001.3,N
1515492795.5,286047004.3,N
1515492815.3,286047001.7,N
1515492835.1,286046999.9,N
1515492855.9,286047002.8,N
1515492875.7,286046999.8,N
1515492895.6,286047011.9,N
1515492915.4,286047000.0,N
1515492935.2,286046999.4,N
1515492955.1,286046997.2,N
1515492956.0,286046997.2,N
1515492975.8,286046997.7,N
1515492995.6,286046994.9,N
1515493015.5,286046993.4,N
1515493035.3,286046993.6,N
1515493055.2,286046994.4,N
1515493075.9,286046993.7,N
1515493095.7,286046993.7,N
1515493115.6,286046997.6,N
1515493135.4,286046995.0,N
1515493155.2,286046995.2,N
1515493175.1,286046998.0,N
1515493176.0,286046998.0,N
1515493195.8,286046996.2,N
1515493215.7,286046996.2,N
1515493235.5,286046996.2,N
1515493255.3,286046991.7,N
1515493275.2,286046993.8,N
1515493295.0,286046993.9,N
1515493295.9,286046993.9,N
1515493315.8,286046996.3,N
1515493335.6,286046993.8,N
1515493355.4,286046994.3,N
1515493375.3,286046994.1,N
1515493395.1,286046992.1,N
1515493415.8,286046992.1,N
1515493435.7,286046992.4,N
1515493455.5,286046988.7,Y
1515493475.4,286046993.5,P
1515493495.2,286046991.7,P
1515493515.0,286046992.5,P
1515493515.9,286046992.5,Y
1515493535.8,286047000.4,P
1515493555.6,286047001.0,N
1515493575.5,286046999.9,N
1515493595.3,286046999.7,N
1515493615.1,286047000.4,N
1515493635.9,286047002.1,N
1515493655.7,286047002.1,N
1515493675.5,286047003.1,N
1515493695.4,286047005.4,N
1515493715.2,286047005.2,N
1515493735.1,286047006.0,N
1515493736.0,286047006.0,N
1515493755.8,286047003.5,N
1515493775.6,286047003.2,N
1515493795.5,286047004.8,N
1515493815.3,286047006.4,N
1515493835.1,286047004.6,N
1515493855.9,286047003.7,N
1515493875.7,286047004.4,N
1515493895.6,286047001.9,N
1515493915.4,286047002.0,N
1515493935.2,286047002.4,N
1515493955.1,286047000.1,N
1515493956.0,286047000.1,N
1515493975.8,286047001.6,N
1515493995.7,286046999.7,N
1515494015.5,286046999.7,N
1515494035.3,286047001.0,N
1515494055.2,286046998.4,N
1515494075.0,286046998.5,N
1515494075.9,286046998.5,N
1515494095.8,286046999.1,N
1515494115.6,286046998.7,N
1515494135.4,286046997.5,N
1515494155.3,286046997.6,N
1515494175.1,286046994.5,N
1515494195.8,286046996.4,N
1515494215.7,286046996.0,N
1515494235.5,286046991.7,N
1515494255.4,286046992.1,N
1515494275.2,286046993.2,N
1515494295.0,286046988.5,N
1515494295.9,286046988.5,N
1515494315.8,286046989.1,N
1515494335.6,286046991.0,N
1515494355.4,286046991.3,N
1515494375.3,286046987.3,N
1515494395.1,286046989.8,N
1515494415.9,286046991.2,N
1515494435.7,286046991.2,N
1515494455.5,286046987.3,N
1515494475.4,286046985.9,Y
1515494495.2,286046988.7,P
1515494515.1,286046989.5,P
1515494516.0,286046989.5,P
1515494535.8,286046991.1,Y
1515494555.6,286047001.5,P
1515494575.5,286047001.4,N
1515494595.3,286046999.8,N
1515494615.1,286047002.0,N
1515494635.9,286047002.7,N
1515494655.7,286047000.7,N
1515494675.6,286046999.0,N
1515494695.4,286046999.2,N
1515494715.2,286046997.4,N
1515494735.1,286046995.1,N
1515494736.0,286046995.1,N
1515494755.8,286047000.4,N
1515494775.7,286047001.2,N
1515494795.5,286047002.8,N
1515494815.3,286047001.8,N
1515494835.2,286047002.7,N
1515494855.9,286047003.2,N
1515494875.7,286047003.5,N
1515494895.6,286047003.5,N
1515494915.4,286047001.4,N
1515494935.3,286047007.5,N
1515494955.1,286047005.1,N
1515494956.0,286047005.1,N
1515494975.8,286047004.6,N
1515494995.7,286047005.8,N
1515495015.5,286047004.6,N
1515495035.3,286047007.1,N
1515495055.2,286047004.5,N
1515495075.0,286047005.8,N
1515495075.9,286047005.8,N
1515495095.8,286047005.5,N
1515495115.6,286047004.7,N
1515495135.4,286047006.9,N
1515495155.3,286047005.0,N
1515495175.1,286047008.3,N
1515495195.8,286047008.6,N
1515495215.7,286047009.0,N
1515495235.5,286047008.9,N
1515495255.4,286047006.8,N
1515495275.2,286047008.7,N
1515495295.0,286047006.3,N
1515495295.9,286047006.3,N
1515495315.8,286047007.2,Y
1515495335.6,286046998.3,P
1515495355.4,286046999.0,N
1515495375.3,286046999.5,N
1515495395.1,286046999.4,N
1515495415.9,286046997.5,N
1515495435.7,286046993.4,N
1515495455.5,286046996.0,N
1515495475.4,286046997.6,N
1515495495.2,286046995.9,N
1515495515.1,286046996.1,N
1515495516.0,286046996.1,N
1515495535.8,286046991.9,N
1515495555.6,286046990.1,Y
1515495575.5,286046991.8,P
1515495595.3,286046994.2,N
